Location: Newark
(58.3833°N, 26.7167°E)
Time: 23:10:15
(UTC+00:00)

ISS - Visible Passes

Search period start: 20 January 2020 00:00
Search period end: 30 January 2020 00:00
Orbit: 415 x 421 km, 51.6° (Epoch: 21 January)

Date Brightness Start Highest point End Pass type
(mag) Time Alt. Az. Time Alt. Az. Time Alt. Az.
23 Jan -1.1 16:42:04 10° S 16:42:22 11° SSE 16:42:22 11° SSE visible
24 Jan -1.0 17:28:44 10° SW 17:29:22 13° SSW 17:29:22 13° SSW visible
25 Jan -1.7 16:41:09 10° SSW 16:43:21 17° SSE 16:43:21 17° SSE visible
26 Jan -1.4 15:53:44 10° S 15:55:38 14° SSE 15:57:18 11° ESE visible
26 Jan -1.4 17:28:50 10° SW 17:30:14 19° SSW 17:30:14 19° SSW visible
27 Jan -1.2 15:06:43 10° SSE 15:07:49 11° SSE 15:08:55 10° SE visible
27 Jan -2.1 16:41:01 10° SW 16:43:45 23° SSE 16:44:09 22° SSE visible
28 Jan -1.8 15:53:17 10° SSW 15:55:51 20° SSE 15:58:02 12° ESE visible
28 Jan -1.7 17:29:07 10° WSW 17:30:58 22° SSW 17:30:58 22° SSW visible
29 Jan -2.2 16:41:11 10° SW 16:44:03 26° S 16:44:51 23° SSE visible
29 Jan -0.4 18:17:38 10° WSW 18:17:46 11° WSW 18:17:46 11° WSW visible
